Temp
-7 -7 -7 -7 -7 -6 -6 -7 -7 -7 -7 -7 -7 -7 -7 -7 -7 -7 -7 -7 -7 -7 -7 -7 -7 -7 -7 -7 -7 -7 -7 -8 -8 -8 -8 -8 -8 -8 -8 -8 -8 -8 -8
-7 -7 -7 -7 -7 -7 -7 -7 -7 -7 -7 -7 -7 -7 -7 -7 -7 -7 -7 -7 -7 -7 -7 -7 -7 -7 -7 -7 -7 -8 -8 -8 -8 -8 -8 -8 -8 -8 -8 -8 -8 -8 -8
-7 -8 -7 -7 -7 -7 -7 -7 -7 -8 -7 -7 -7 -7 -7 -7 -7 -7 -7 -7 -7 -7 -7 -7 -7 -7 -7 -7 -8 -8 -8 -8 -8 -8 -9 -9 -9 -9 -9 -8 -8 -8 -8
-7 -7 -7 -7 -7 -7 -7 -7 -7 -8 -7 -7 -7 -7 -7 -7 -7 -7 -7 -7 -7 -8 -8 -8 -8 -7 -8 -8 -8 -8 -8 -8 -9 -9 -9 -9 -9 -9 -9 -9 -9 -8 -8
-8 -7 -7 -7 -7 -7 -7 -7 -8 -8 -8 -8 -7 -7 -7 -7 -7 -7 -7 -8 -8 -8 -8 -8 -8 -8 -8 -8 -8 -8 -9 -9 -9 -9 -9 -9 -9 -9 -9 -9 -9 -8 -8
-8 -7 -7 -7 -7 -7 -7 -8 -8 -8 -8 -8 -8 -8 -8 -8 -8 -8 -8 -8 -8 -8 -8 -8 -8 -8 -8 -8 -8 -9 -9 -9 -9 -9 -9 -9 -9 -9 -9 -9 -9 -9 -9
-8 -7 -7 -8 -8 -8 -8 -8 -8 -8 -8 -8 -8 -8 -8 -8 -8 -8 -8 -8 -8 -8 -8 -8 -8 -8 -8 -9 -9 -9 -9 -9 -9 -9 -9 -9 -9 -9 -9 -9 -9 -9 -9
-8 -8 -8 -8 -8 -8 -8 -8 -8 -9 -8 -8 -8 -8 -8 -8 -8 -8 -8 -8 -8 -8 -8 -9 -9 -9 -9 -9 -9 -9 -9 -9 -9 -9 -9 -10 -10 -9 -9 -9 -9 -9 -9
-8 -8 -8 -8 -8 -8 -8 -8 -9 -9 -9 -8 -8 -8 -8 -8 -8 -8 -8 -9 -9 -9 -9 -9 -9 -9 -9 -9 -9 -9 -9 -9 -9 -9 -10 -10 -10 -9 -9 -9 -9 -9 -9
-8 -8 -8 -8 -8 -8 -8 -9 -9 -9 -9 -9 -8 -8 -8 -8 -8 -8 -9 -9 -9 -9 -9 -9 -9 -9 -9 -9 -9 -9 -9 -9 -9 -10 -10 -10 -10 -9 -9 -9 -9 -9 -9
-9 -8 -8 -8 -8 -8 -9 -9 -9 -9 -9 -9 -9 -9 -9 -9 -9 -9 -9 -9 -9 -9 -9 -9 -9 -9 -9 -9 -9 -9 -10 -10 -10 -10 -10 -10 -9 -9 -9 -9 -9 -9 -9
-9 -9 -8 -9 -9 -9 -9 -9 -9 -9 -9 -9 -9 -9 -9 -9 -9 -9 -9 -9 -9 -9 -9 -9 -9 -9 -9 -9 -9 -10 -10 -10 -10 -10 -10 -9 -9 -9 -9 -9 -9 -9 -9
-10 -9 -9 -9 -9 -9 -9 -10 -9 -9 -9 -9 -9 -9 -9 -8 -9 -9 -9 -9 -9 -9 -9 -9 -9 -9 -9 -9 -10 -10 -10 -10 -10 -10 -10 -10 -9 -9 -9 -9 -9 -10 -10
-10 -10 -9 -10 -10 -10 -10 -10 -9 -9 -9 -9 -9 -9 -8 -8 -9 -9 -9 -9 -9 -9 -9 -9 -9 -9 -10 -10 -10 -10 -10 -10 -10 -10 -10 -10 -9 -9 -9 -9 -10 -10 -11
-10 -10 -10 -10 -10 -10 -10 -10 -9 -9 -9 -9 -9 -9 -9 -9 -9 -9 -9 -10 -9 -9 -9 -9 -9 -10 -10 -10 -10 -10 -10 -10 -10 -10 -10 -10 -9 -10 -10 -10 -10 -11 -11
-11 -10 -10 -10 -10 -10 -10 -10 -9 -9 -9 -9 -9 -9 -9 -9 -9 -10 -10 -10 -10 -10 -10 -10 -10 -10 -10 -10 -10 -10 -10 -10 -10 -10 -10 -10 -10 -10 -10 -10 -11 -11 -12
-11 -10 -11 -10 -10 -10 -10 -10 -10 -10 -9 -9 -9 -9 -9 -9 -9 -9 -10 -10 -10 -10 -10 -10 -10 -10 -10 -10 -10 -10 -10 -10 -10 -10 -10 -10 -10 -10 -10 -11 -11 -11 -11
-11 -11 -11 -10 -11 -10 -10 -10 -10 -9 -9 -9 -10 -10 -10 -10 -9 -9 -10 -10 -10 -10 -10 -10 -10 -10 -10 -10 -10 -10 -10 -10 -10 -10 -10 -10 -10 -10 -11 -11 -11 -12 -12
-11 -11 -11 -11 -11 -11 -11 -10 -10 -10 -10 -10 -10 -10 -10 -10 -9 -9 -9 -10 -10 -10 -10 -10 -10 -10 -10 -10 -10 -10 -10 -10 -10 -10 -10 -10 -10 -11 -11 -12 -12 -12 -12
-12 -11 -11 -11 -11 -11 -11 -10 -10 -10 -10 -10 -10 -10 -10 -10 -10 -9 -9 -10 -10 -10 -10 -10 -10 -10 -10 -10 -10 -10 -10 -10 -10 -10 -10 -10 -11 -11 -11 -12 -12 -12 -12
-12 -12 -11 -11 -11 -11 -11 -11 -11 -11 -11 -10 -10 -10 -10 -10 -10 -10 -10 -10 -10 -10 -10 -10 -10 -10 -10 -10 -10 -10 -10 -10 -10 -10 -11 -11 -11 -11 -12 -12 -12 -12 -13
-13 -12 -12 -12 -12 -11 -11 -11 -11 -11 -11 -11 -11 -11 -11 -11 -10 -10 -10 -10 -10 -10 -10 -10 -10 -10 -10 -10 -10 -11 -11 -11 -11 -11 -11 -11 -11 -11 -12 -13 -13 -13 -13
-12 -12 -13 -13 -12 -12 -11 -11 -11 -11 -11 -11 -11 -11 -11 -11 -11 -11 -10 -10 -10 -10 -10 -10 -11 -11 -11 -11 -11 -11 -11 -11 -11 -11 -11 -11 -11 -12 -12 -13 -13 -13 -13
-12 -12 -12 -13 -13 -12 -12 -12 -11 -11 -11 -11 -11 -11 -11 -11 -11 -11 -11 -11 -11 -11 -11 -11 -11 -11 -11 -11 -11 -11 -11 -11 -11 -11 -11 -11 -11 -12 -12 -13 -13 -13 -13
-14 -12 -12 -11 -12 -12 -12 -12 -12 -12 -12 -12 -12 -12 -11 -11 -11 -11 -11 -11 -11 -11 -11 -11 -11 -11 -11 -11 -11 -11 -11 -11 -11 -11 -11 -11 -12 -12 -12 -13 -13 -13 -13
-13 -13 -12 -12 -12 -13 -13 -12 -12 -12 -12 -12 -12 -12 -12 -12 -11 -12 -12 -11 -11 -11 -11 -11 -11 -11 -11 -11 -11 -11 -11 -11 -11 -11 -11 -11 -12 -13 -13 -13 -13 -13 -13
Height
5863 5864 5866 5867 5868 5869 5870 5871 5872 5874 5875 5876 5877 5878 5879 5879 5879 5879 5879 5879 5879 5879 5879 5879 5879 5880 5880 5879 5879 5878 5878 5877 5876 5875 5875 5873 5872 5871 5869 5867 5866 5864 5862
5862 5863 5864 5865 5867 5868 5869 5870 5872 5873 5875 5876 5876 5878 5878 5879 5879 5879 5879 5879 5879 5879 5879 5879 5879 5880 5880 5880 5879 5879 5878 5878 5877 5876 5875 5873 5872 5871 5869 5867 5864 5862 5860
5860 5861 5863 5864 5865 5867 5868 5870 5871 5873 5874 5875 5876 5877 5878 5879 5879 5879 5879 5880 5880 5880 5880 5880 5880 5880 5880 5880 5880 5879 5879 5878 5877 5877 5875 5873 5871 5869 5866 5864 5862 5860 5857
5858 5859 5860 5862 5864 5865 5866 5868 5870 5872 5873 5875 5876 5877 5877 5878 5878 5879 5879 5880 5880 5880 5881 5881 5881 5881 5881 5880 5880 5880 5879 5877 5876 5875 5874 5872 5869 5866 5864 5861 5858 5856 5853
5855 5857 5858 5860 5862 5864 5865 5867 5869 5871 5872 5874 5875 5876 5877 5877 5878 5878 5879 5879 5879 5880 5880 5880 5880 5880 5880 5880 5880 5879 5878 5876 5875 5872 5871 5869 5867 5864 5860 5857 5854 5851 5848
5853 5854 5856 5858 5860 5862 5864 5865 5867 5869 5871 5873 5874 5875 5876 5876 5877 5878 5878 5878 5879 5879 5879 5880 5879 5879 5879 5878 5878 5877 5875 5874 5872 5870 5868 5865 5862 5860 5856 5853 5850 5847 5843
5849 5851 5853 5856 5857 5859 5862 5863 5866 5868 5870 5871 5872 5874 5874 5875 5876 5876 5877 5877 5877 5878 5878 5878 5878 5878 5878 5877 5876 5875 5874 5872 5870 5868 5865 5863 5859 5856 5852 5848 5845 5841 5837
5846 5848 5850 5853 5855 5857 5859 5862 5864 5866 5868 5870 5871 5872 5872 5874 5875 5875 5875 5875 5876 5876 5876 5876 5876 5876 5876 5875 5874 5872 5872 5870 5868 5865 5862 5859 5856 5852 5848 5845 5841 5837 5832
5843 5845 5848 5850 5853 5855 5857 5860 5862 5864 5866 5868 5869 5870 5871 5872 5873 5873 5874 5874 5874 5874 5874 5874 5874 5874 5873 5873 5871 5870 5869 5867 5865 5862 5859 5856 5853 5849 5845 5841 5836 5831 5825
5838 5841 5844 5847 5850 5852 5855 5857 5860 5862 5864 5866 5867 5868 5869 5870 5871 5871 5872 5872 5872 5873 5872 5872 5872 5871 5871 5870 5869 5867 5866 5864 5861 5859 5856 5852 5848 5845 5841 5836 5830 5824 5818
5834 5838 5840 5843 5846 5849 5852 5855 5857 5860 5862 5864 5865 5867 5867 5868 5869 5869 5870 5870 5870 5870 5870 5869 5869 5869 5868 5867 5866 5864 5863 5861 5858 5856 5853 5849 5845 5841 5836 5830 5824 5818 5811
5831 5833 5836 5839 5842 5845 5849 5852 5854 5857 5860 5861 5863 5864 5865 5866 5866 5867 5867 5867 5867 5867 5866 5866 5866 5866 5865 5864 5862 5861 5860 5857 5855 5852 5849 5845 5841 5836 5831 5825 5819 5812 5806
5825 5828 5832 5835 5838 5842 5845 5848 5852 5854 5857 5858 5860 5861 5862 5862 5863 5863 5864 5864 5864 5864 5863 5863 5862 5862 5861 5860 5859 5857 5856 5853 5851 5848 5844 5840 5836 5831 5826 5820 5813 5806 5801
5821 5823 5826 5831 5835 5838 5842 5846 5849 5851 5853 5856 5857 5858 5859 5859 5859 5859 5859 5859 5860 5860 5859 5859 5858 5858 5857 5856 5855 5854 5852 5849 5847 5844 5840 5836 5831 5826 5821 5814 5808 5802 5797
5814 5819 5823 5826 5829 5834 5838 5842 5846 5848 5850 5852 5853 5854 5854 5855 5854 5854 5854 5855 5855 5855 5855 5855 5854 5854 5852 5852 5851 5850 5847 5845 5842 5840 5835 5832 5827 5822 5816 5810 5804 5799 5795
5808 5813 5818 5822 5826 5828 5832 5836 5840 5843 5845 5847 5848 5849 5849 5850 5849 5849 5849 5849 5850 5850 5850 5850 5849 5849 5848 5847 5846 5845 5844 5841 5838 5835 5832 5828 5823 5817 5812 5806 5801 5797 5792
5802 5806 5811 5817 5820 5824 5828 5831 5835 5837 5839 5842 5844 5845 5845 5845 5845 5845 5845 5844 5845 5845 5845 5845 5845 5844 5843 5842 5842 5841 5839 5837 5834 5831 5828 5824 5818 5813 5807 5802 5798 5794 5790
5795 5801 5806 5812 5814 5819 5823 5826 5829 5832 5834 5836 5838 5840 5841 5841 5841 5841 5840 5840 5840 5840 5840 5840 5840 5839 5838 5837 5837 5836 5834 5832 5829 5827 5823 5819 5814 5809 5803 5799 5796 5792 5789
5788 5793 5799 5804 5807 5811 5817 5822 5825 5827 5829 5832 5834 5835 5836 5836 5837 5837 5836 5836 5836 5836 5835 5835 5835 5834 5834 5833 5832 5831 5829 5827 5825 5823 5819 5814 5809 5805 5800 5797 5793 5789 5786
5779 5786 5791 5795 5801 5805 5809 5815 5820 5823 5825 5827 5828 5830 5831 5832 5832 5832 5832 5832 5832 5831 5831 5831 5830 5830 5829 5828 5827 5826 5824 5823 5821 5818 5814 5809 5805 5800 5796 5793 5790 5787 5784
5770 5778 5783 5790 5796 5800 5806 5809 5814 5817 5820 5822 5824 5824 5826 5827 5828 5828 5828 5828 5828 5827 5827 5827 5826 5825 5825 5823 5822 5821 5820 5818 5816 5813 5809 5805 5801 5796 5791 5788 5786 5783 5780
5761 5770 5775 5782 5788 5794 5798 5803 5808 5811 5814 5817 5819 5819 5821 5822 5823 5824 5824 5824 5824 5824 5823 5823 5822 5821 5820 5819 5818 5816 5814 5814 5811 5808 5804 5800 5796 5791 5787 5784 5783 5780 5776
5756 5761 5763 5772 5779 5785 5790 5795 5801 5805 5808 5811 5812 5814 5815 5817 5818 5819 5819 5819 5819 5819 5819 5818 5818 5816 5816 5815 5813 5811 5809 5807 5804 5801 5798 5795 5791 5787 5783 5779 5778 5776 5773
5747 5748 5754 5760 5766 5775 5782 5789 5794 5797 5801 5804 5806 5808 5809 5811 5812 5813 5813 5814 5814 5814 5813 5813 5813 5812 5810 5809 5807 5806 5804 5801 5799 5796 5793 5790 5786 5782 5778 5775 5773 5771 5768
5734 5736 5736 5747 5759 5766 5775 5780 5785 5789 5793 5797 5799 5801 5803 5804 5805 5806 5807 5807 5808 5808 5808 5807 5807 5806 5805 5803 5801 5800 5798 5796 5793 5790 5787 5784 5780 5776 5773 5769 5767 5766 5763
5731 5733 5741 5745 5752 5756 5764 5770 5776 5780 5785 5788 5790 5792 5795 5797 5798 5799 5800 5801 5801 5801 5801 5801 5800 5799 5798 5796 5795 5794 5792 5789 5786 5784 5780 5778 5774 5771 5767 5764 5761 5759 5758
Wind_Speed
15 14 13 11 9 8 8 10 11 11 10 10 9 8 7 6 4 2 1 1 1 2 3 4 5 6 7 9 10 11 11 12 13 13 14 15 15 16 18 19 20 20 21
15 14 14 13 11 10 11 11 12 11 11 10 9 8 6 5 3 3 2 1 1 0 1 2 4 5 6 8 10 11 12 13 14 15 16 17 18 19 20 21 22 24 25
16 16 15 14 14 12 14 14 13 13 13 11 10 9 7 5 4 3 3 2 2 1 2 2 3 4 5 6 7 8 10 13 14 14 15 18 21 22 24 25 26 26 27
17 17 17 15 15 15 15 15 15 15 14 12 10 9 8 6 5 5 4 3 2 2 2 2 3 3 3 4 5 8 11 12 13 14 16 19 22 25 26 26 27 28 28
17 17 18 16 16 17 17 17 17 16 15 13 12 10 9 8 7 6 6 4 3 2 1 0 1 2 2 4 6 8 10 12 14 17 20 23 25 27 29 30 30 30 29
18 17 17 18 18 18 18 18 18 17 16 14 13 11 10 9 8 7 6 5 5 4 3 3 3 3 3 5 8 10 12 14 17 20 24 28 30 31 33 32 31 31 33
20 18 17 17 19 18 19 19 18 18 16 15 14 12 10 10 9 8 7 5 5 5 5 6 6 6 6 7 9 12 15 17 20 24 26 28 31 34 35 33 33 35 37
22 20 19 19 19 20 20 19 19 18 17 16 14 12 11 10 9 7 7 6 6 7 8 8 8 9 9 9 12 15 16 19 22 26 30 32 34 35 34 34 35 38 41
23 22 21 21 21 21 21 21 20 19 18 16 14 11 10 9 8 8 8 7 8 9 10 10 11 12 12 13 15 17 18 20 24 29 33 35 34 34 33 35 39 42 43
25 24 24 24 24 23 23 22 22 20 18 16 14 12 10 9 9 9 9 10 10 12 12 13 14 15 16 17 18 18 19 23 27 32 35 34 34 33 35 40 42 43 44
24 25 25 25 25 25 24 23 22 21 19 17 15 13 11 9 9 11 11 11 12 14 15 16 16 17 16 18 20 20 21 24 29 33 35 32 32 34 39 42 43 44 44
26 26 26 26 27 27 26 25 24 22 20 17 16 13 11 11 13 15 15 15 16 16 17 17 18 18 18 18 19 20 22 25 29 33 33 32 32 36 41 42 43 43 39
29 29 27 28 28 27 26 25 24 22 18 18 19 18 14 16 19 19 19 19 19 18 18 18 19 19 19 20 19 21 23 25 30 33 31 32 33 39 41 42 41 38 33
31 31 31 30 28 25 24 23 22 19 17 15 16 19 20 24 24 23 23 23 22 21 21 20 21 22 22 20 20 21 23 26 30 33 31 33 35 41 40 40 38 32 31
35 34 34 33 30 27 24 22 21 19 18 18 21 23 26 25 28 29 29 26 25 24 23 22 23 25 25 24 23 23 24 26 30 31 31 33 38 39 38 37 32 29 29
40 38 37 35 31 29 27 25 23 20 20 19 21 21 21 24 24 24 25 26 28 25 23 22 25 27 25 25 24 23 23 26 29 30 31 33 39 37 37 34 28 27 28
44 43 40 37 32 29 27 25 23 20 20 20 19 18 16 18 20 20 21 21 20 20 22 26 29 25 25 24 22 22 23 26 28 29 30 35 36 36 36 30 26 26 27
48 45 43 38 34 30 28 26 23 22 22 20 17 16 15 15 15 17 17 18 19 21 23 24 23 24 24 22 20 21 22 26 26 27 31 36 35 35 33 27 24 24 26
50 49 47 42 37 33 29 27 25 25 23 21 18 16 14 13 14 15 15 17 17 19 20 22 23 22 21 20 18 20 23 24 25 26 31 33 34 34 31 24 22 22 24
54 53 51 46 40 35 32 29 28 26 24 21 18 15 13 13 13 14 15 16 17 18 18 19 19 19 18 18 18 20 22 23 24 27 31 32 33 33 30 22 21 22 23
59 58 52 46 40 36 34 32 30 27 24 22 18 17 14 14 15 14 14 16 16 16 16 17 17 17 17 18 20 21 22 22 24 28 30 31 33 32 30 22 22 23 24
59 57 53 47 42 39 38 36 34 30 28 25 22 19 17 16 16 16 17 16 17 17 18 19 19 19 19 20 22 22 22 22 25 27 29 31 32 33 30 22 21 23 24
58 60 58 49 45 42 43 41 37 33 30 28 24 21 19 18 17 17 18 18 19 19 19 20 21 22 23 23 23 22 22 24 27 28 29 32 33 33 32 24 23 24 26
47 58 52 59 51 48 48 43 39 37 34 31 26 24 21 19 18 18 19 21 21 21 22 22 23 24 25 25 24 22 23 25 27 28 29 32 34 32 32 26 24 25 26
56 43 50 51 60 54 51 47 44 42 37 33 29 26 25 23 20 20 21 22 24 25 25 25 25 26 26 25 25 24 25 26 27 28 29 33 34 34 33 28 26 25 26
57 59 54 56 59 58 53 50 47 46 41 37 32 30 28 26 24 23 23 23 25 27 28 28 27 28 28 26 25 26 26 28 29 30 30 34 36 34 33 30 28 28 28
Wind_Direction
215 217 220 216 212 210 203 184 181 180 180 174 169 164 157 150 145 152 149 65 10 7 29 42 56 56 59 61 52 41 34 28 21 13 7 1 357 355 349 344 338 333 327
221 218 217 217 212 210 204 193 189 187 187 185 179 177 177 182 192 203 216 185 184 254 44 63 69 67 62 53 45 36 31 26 17 6 359 351 347 346 342 339 337 334 330
217 215 220 216 212 207 205 198 194 195 196 194 193 194 200 212 230 235 216 207 223 226 130 105 87 64 53 41 33 33 24 8 359 357 356 354 348 343 338 334 332 329 325
225 215 214 214 211 210 203 199 199 196 201 202 206 211 216 224 235 240 232 242 240 203 147 115 86 54 37 29 23 13 5 0 355 354 350 347 343 339 336 333 331 330 327
220 219 219 214 213 211 203 203 201 201 204 209 214 220 223 231 233 231 231 239 234 220 199 245 4 344 342 353 355 357 356 346 347 343 339 337 338 335 333 333 334 332 330
219 221 218 218 213 211 209 206 203 205 208 214 217 223 228 234 237 234 234 230 224 229 254 280 290 294 310 339 337 336 335 336 336 337 334 332 331 332 334 337 336 334 331
216 219 219 216 210 209 211 208 207 207 211 216 220 224 228 235 239 237 238 232 231 241 259 277 281 284 296 315 320 327 329 329 332 335 333 332 331 335 337 337 335 333 330
215 215 215 217 215 213 212 212 208 208 212 217 220 224 229 236 238 244 248 238 243 256 266 272 274 277 287 299 310 319 323 324 329 331 329 329 332 335 337 336 335 331 327
211 214 213 215 218 215 212 210 207 209 213 216 217 222 229 234 242 246 250 250 254 261 265 267 268 273 281 295 307 310 319 321 325 325 327 332 334 337 336 336 334 330 328
213 213 213 214 216 212 211 209 207 208 210 214 216 218 225 232 245 249 252 256 261 266 267 269 271 278 285 295 302 309 315 322 322 325 327 332 335 337 337 336 333 330 329
214 215 212 211 211 207 207 207 206 209 211 212 216 222 223 233 252 260 263 266 272 271 271 274 280 284 292 299 303 305 315 320 323 324 327 333 336 338 338 334 333 331 330
215 212 211 207 202 201 203 205 205 206 210 214 218 215 233 255 273 273 273 274 273 274 276 279 282 287 292 300 306 312 317 320 322 324 328 334 338 340 337 335 334 331 330
208 206 202 201 198 199 203 204 207 205 206 211 220 223 243 268 270 276 269 268 271 275 278 282 282 285 295 300 308 314 315 318 321 324 331 336 339 340 336 336 336 333 332
204 199 193 193 193 194 197 196 196 201 209 225 241 251 259 263 262 268 269 270 272 275 278 283 287 289 293 297 302 311 313 318 321 325 333 336 340 338 336 338 336 334 336
199 193 186 184 182 187 191 199 207 217 229 243 252 255 261 262 261 265 268 271 272 273 275 279 290 292 289 292 296 307 312 317 323 328 334 336 339 335 339 340 336 337 340
199 195 193 192 192 194 200 205 215 226 236 249 252 254 259 263 266 270 271 270 267 270 273 279 292 290 289 291 294 304 308 318 324 330 333 337 334 337 341 341 335 338 343
202 197 196 196 197 198 204 209 215 222 233 241 248 256 257 265 269 270 269 272 269 263 271 280 285 284 287 291 294 301 310 318 324 330 333 335 333 340 341 339 334 340 346
205 200 198 199 199 201 208 214 219 228 231 234 241 249 263 267 269 270 272 270 266 267 273 277 279 283 287 290 293 300 312 317 324 330 331 332 336 340 340 335 333 339 344
206 202 200 201 199 204 210 217 223 225 227 230 234 244 259 270 270 274 271 270 270 272 274 275 278 283 287 288 296 304 312 318 324 328 329 333 337 338 336 328 329 335 340
204 205 205 202 202 206 210 216 220 224 227 228 233 242 254 265 271 273 272 271 273 275 277 280 280 284 288 292 299 306 312 318 322 326 329 333 335 334 332 321 322 329 336
204 206 205 204 206 207 212 214 219 222 226 231 235 242 251 263 270 275 279 277 278 281 283 287 289 291 294 299 304 308 311 315 320 323 328 332 332 332 330 314 317 323 329
205 207 205 205 209 208 213 215 220 222 226 232 239 246 255 264 271 276 276 278 281 284 288 292 296 300 302 302 303 305 309 313 318 322 329 330 330 331 329 311 309 316 321
205 214 205 205 208 210 214 216 220 223 228 233 239 246 253 261 271 278 281 279 280 283 288 292 297 300 300 299 300 303 307 312 317 323 327 327 326 328 327 311 302 312 318
231 226 208 207 205 212 216 216 219 224 228 233 238 243 248 257 268 278 282 283 281 283 287 292 296 299 301 299 299 300 304 310 315 318 323 324 322 323 321 310 299 302 309
249 237 201 216 213 212 216 217 220 226 227 231 236 242 248 253 262 272 277 281 283 284 286 290 295 298 300 299 297 298 303 309 312 314 319 320 318 321 316 309 295 296 299
242 245 223 225 221 213 216 218 222 228 227 229 233 238 245 252 260 270 273 278 283 285 286 288 292 295 299 297 295 297 301 306 310 311 315 317 315 316 312 306 291 289 295